| time (UTC) | temp F | wind direction | speed MPH | gust MPH | rain 1hr in | rain 24hr in | rain mn in | humidity % | barometer mb |
| 20260903103050 | 74 | 355 | 1.0 | 5.0 | 0.00 | 0.00 | 0.00 | 70 | 1026.0 |
| 20260903101543 | 74 | 305 | 0.0 | 6.0 | 0.00 | 0.00 | 0.00 | 71 | 1026.2 |
| 20260903100049 | 72 | 0 | 0.0 | 5.0 | 0.00 | 0.00 | 0.00 | 75 | 1026.0 |
| 20260903094544 | 71 | 350 | 1.0 | 5.0 | 0.00 | 0.00 | 0.00 | 75 | 1026.0 |
| 20260903093102 | 70 | 233 | 1.0 | 6.0 | 0.00 | 0.00 | 0.00 | 78 | 1026.0 |
| 20260903091543 | 70 | 0 | 0.0 | 3.0 | 0.00 | 0.00 | 0.00 | 81 | 1026.2 |
| 20260903090051 | 69 | 279 | 1.0 | 4.0 | 0.00 | 0.00 | 0.00 | 83 | 1026.2 |
| 20260903084903 | 67 | 0 | 0.0 | 3.0 | 0.00 | 0.00 | 0.00 | 86 | 1026.3 |
| 20260903083053 | 66 | 264 | 0.0 | 4.0 | 0.00 | 0.00 | 0.00 | 89 | 1026.4 |
| 20260903081556 | 65 | 0 | 0.0 | 0.0 | 0.00 | 0.00 | 0.00 | 91 | 1026.4 |
| 20260903080047 | 64 | 0 | 0.0 | 1.0 | 0.00 | 0.00 | 0.00 | 93 | 1026.4 |
| 20260903074543 | 62 | 0 | 0.0 | 0.0 | 0.00 | 0.00 | 0.00 | 94 | 1026.2 |
| 20260903073043 | 61 | 0 | 0.0 | 0.0 | 0.00 | 0.00 | 0.00 | 94 | 1026.0 |
| 20260903071544 | 60 | 0 | 0.0 | 0.0 | 0.00 | 0.00 | 0.00 | 95 | 1025.9 |
| 20260903070048 | 59 | 0 | 0.0 | 0.0 | 0.00 | 0.00 | 0.00 | 94 | 1025.8 |
| 20260903064542 | 58 | 0 | 0.0 | 0.0 | 0.00 | 0.00 | 0.00 | 95 | 1025.8 |
| 20260903063108 | 57 | 0 | 0.0 | 0.0 | 0.00 | 0.00 | 0.00 | 94 | 1025.6 |
| 20260903061543 | 56 | 0 | 0.0 | 0.0 | 0.00 | 0.00 | 0.00 | 94 | 1025.5 |
| 20260903060045 | 56 | 0 | 0.0 | 0.0 | 0.00 | 0.00 | 0.00 | 94 | 1025.4 |
| 20260903054545 | 56 | 0 | 0.0 | 0.0 | 0.00 | 0.00 | 0.00 | 94 | 1025.2 |
| 20260903053050 | 56 | 0 | 0.0 | 0.0 | 0.00 | 0.00 | 0.00 | 93 | 1025.3 |
| 20260903051548 | 56 | 0 | 0.0 | 0.0 | 0.00 | 0.00 | 0.00 | 93 | 1025.2 |
| 20260903050110 | 56 | 0 | 0.0 | 0.0 | 0.00 | 0.00 | 0.00 | 93 | 1025.3 |
| 20260903044543 | 56 | 0 | 0.0 | 0.0 | 0.00 | 0.00 | 0.00 | 93 | 1025.1 |
| 20260903043049 | 57 | 0 | 0.0 | 0.0 | 0.00 | 0.00 | 0.00 | 93 | 1025.2 |
| 20260903041545 | 57 | 0 | 0.0 | 0.0 | 0.00 | 0.00 | 0.00 | 93 | 1025.0 |
| 20260903040054 | 57 | 0 | 0.0 | 0.0 | 0.00 | 0.00 | 0.00 | 92 | 1025.0 |
| 20260903034547 | 57 | 0 | 0.0 | 0.0 | 0.00 | 0.00 | 0.00 | 92 | 1024.8 |
| 20260903033046 | 58 | 0 | 0.0 | 0.0 | 0.00 | 0.00 | 0.00 | 92 | 1025.1 |
| 20260903031543 | 57 | 0 | 0.0 | 0.0 | 0.00 | 0.00 | 0.00 | 91 | 1025.0 |
| 20260903030050 | 58 | 0 | 0.0 | 0.0 | 0.00 | 0.00 | 0.00 | 91 | 1025.0 |
| 20260903024548 | 58 | 0 | 0.0 | 0.0 | 0.00 | 0.00 | 0.00 | 91 | 1025.1 |
| 20260903023045 | 58 | 0 | 0.0 | 0.0 | 0.00 | 0.00 | 0.00 | 91 | 1025.0 |
| 20260903021546 | 58 | 0 | 0.0 | 0.0 | 0.00 | 0.00 | 0.00 | 90 | 1024.8 |
| 20260903020050 | 59 | 0 | 0.0 | 0.0 | 0.00 | 0.00 | 0.00 | 90 | 1024.9 |
| 20260903014549 | 59 | 0 | 0.0 | 0.0 | 0.00 | 0.00 | 0.00 | 89 | 1024.9 |
| 20260903013050 | 59 | 0 | 0.0 | 0.0 | 0.00 | 0.00 | 0.00 | 89 | 1024.9 |
| 20260903011557 | 60 | 0 | 0.0 | 0.0 | 0.00 | 0.00 | 0.00 | 89 | 1024.9 |
| 20260903010043 | 60 | 0 | 0.0 | 0.0 | 0.00 | 0.00 | 0.00 | 89 | 1024.7 |
| 20260903004540 | 60 | 0 | 0.0 | 0.0 | 0.00 | 0.00 | 0.00 | 88 | 1024.7 |
| 20260903003048 | 61 | 0 | 0.0 | 0.0 | 0.00 | 0.00 | 0.00 | 88 | 1024.9 |
| 20260903001544 | 61 | 0 | 0.0 | 0.0 | 0.00 | 0.00 | 0.00 | 87 | 1024.9 |
| 20260903000043 | 61 | 0 | 0.0 | 0.0 | 0.00 | 0.00 | 0.00 | 87 | 1024.9 |
| 20260902234551 | 62 | 0 | 0.0 | 0.0 | 0.00 | 0.00 | 0.00 | 86 | 1024.9 |
| 20260902233051 | 62 | 0 | 0.0 | 2.0 | 0.00 | 0.00 | 0.00 | 85 | 1025.0 |
| 20260902231554 | 62 | 0 | 0.0 | 2.0 | 0.00 | 0.00 | 0.00 | 85 | 1024.9 |
| 20260902230041 | 63 | 0 | 0.0 | 3.0 | 0.00 | 0.00 | 0.00 | 84 | 1024.9 |
| 20260902224555 | 63 | 0 | 0.0 | 2.0 | 0.00 | 0.00 | 0.00 | 84 | 1025.0 |
| 20260902223044 | 63 | 0 | 0.0 | 4.0 | 0.00 | 0.00 | 0.00 | 83 | 1025.0 |
| 20260902221549 | 63 | 255 | 1.0 | 3.0 | 0.00 | 0.00 | 0.00 | 83 | 1024.9 |
| 20260902220045 | 63 | 0 | 0.0 | 3.0 | 0.00 | 0.00 | 0.00 | 83 | 1024.7 |
| 20260902214544 | 64 | 0 | 1.0 | 3.0 | 0.00 | 0.00 | 0.00 | 82 | 1024.8 |
| 20260902213054 | 64 | 254 | 1.0 | 4.0 | 0.00 | 0.00 | 0.00 | 82 | 1024.7 |
| 20260902211553 | 64 | 268 | 1.0 | 6.0 | 0.00 | 0.00 | 0.00 | 82 | 1024.7 |
| 20260902210046 | 65 | 259 | 1.0 | 7.0 | 0.00 | 0.00 | 0.00 | 81 | 1024.6 |
| 20260902204545 | 65 | 263 | 2.0 | 6.0 | 0.00 | 0.00 | 0.00 | 80 | 1024.7 |
| 20260902203048 | 66 | 240 | 2.0 | 4.0 | 0.00 | 0.00 | 0.00 | 79 | 1024.6 |
| 20260902201545 | 66 | 228 | 2.0 | 8.0 | 0.00 | 0.00 | 0.00 | 77 | 1024.5 |
| 20260902200046 | 67 | 268 | 1.0 | 6.0 | 0.00 | 0.00 | 0.00 | 75 | 1024.6 |
| 20260902194543 | 68 | 239 | 2.0 | 7.0 | 0.00 | 0.00 | 0.00 | 73 | 1024.4 |
| 20260902193048 | 68 | 215 | 3.0 | 7.0 | 0.00 | 0.00 | 0.00 | 72 | 1024.4 |
| 20260902191544 | 69 | 261 | 3.0 | 7.0 | 0.00 | 0.00 | 0.00 | 71 | 1024.1 |
| 20260902190044 | 69 | 262 | 2.0 | 7.0 | 0.00 | 0.00 | 0.00 | 71 | 1023.9 |
| 20260902184557 | 70 | 236 | 2.0 | 6.0 | 0.00 | 0.00 | 0.00 | 70 | 1023.9 |
| 20260902183048 | 70 | 227 | 3.0 | 7.0 | 0.00 | 0.00 | 0.00 | 69 | 1023.5 |
| 20260902181545 | 71 | 280 | 2.0 | 10.0 | 0.00 | 0.00 | 0.00 | 68 | 1023.6 |
| 20260902180113 | 72 | 281 | 2.0 | 8.0 | 0.00 | 0.00 | 0.00 | 67 | 1023.4 |
| 20260902174548 | 72 | 281 | 3.0 | 10.0 | 0.00 | 0.00 | 0.00 | 66 | 1023.5 |
| 20260902173044 | 73 | 250 | 2.0 | 9.0 | 0.00 | 0.00 | 0.00 | 65 | 1023.5 |
| 20260902171545 | 73 | 239 | 3.0 | 8.0 | 0.00 | 0.00 | 0.00 | 64 | 1023.4 |
| 20260902170050 | 74 | 244 | 2.0 | 9.0 | 0.00 | 0.00 | 0.00 | 62 | 1023.3 |
| 20260902164544 | 74 | 250 | 3.0 | 13.0 | 0.00 | 0.00 | 0.00 | 63 | 1023.1 |
| 20260902163047 | 75 | 273 | 2.0 | 10.0 | 0.00 | 0.00 | 0.00 | 61 | 1023.1 |
| 20260902161552 | 76 | 252 | 3.0 | 9.0 | 0.00 | 0.00 | 0.00 | 61 | 1023.1 |
| 20260902160554 | 76 | 284 | 4.0 | 11.0 | 0.00 | 0.00 | 0.00 | 60 | 1023.2 |
| 20260902154543 | 76 | 254 | 1.0 | 12.0 | 0.00 | 0.00 | 0.00 | 60 | 1023.4 |
| 20260902153050 | 77 | 288 | 2.0 | 9.0 | 0.00 | 0.00 | 0.00 | 56 | 1023.2 |
| 20260902151548 | 78 | 252 | 2.0 | 9.0 | 0.00 | 0.00 | 0.00 | 55 | 1023.4 |
| 20260902150048 | 78 | 0 | 1.0 | 13.0 | 0.00 | 0.00 | 0.00 | 54 | 1023.3 |
| 20260902144542 | 78 | 259 | 2.0 | 8.0 | 0.00 | 0.00 | 0.00 | 54 | 1023.3 |
| 20260902143043 | 78 | 236 | 1.0 | 8.0 | 0.00 | 0.00 | 0.00 | 55 | 1023.2 |
| 20260902141542 | 78 | 269 | 3.0 | 10.0 | 0.00 | 0.00 | 0.00 | 53 | 1023.5 |
| 20260902140047 | 77 | 276 | 2.0 | 9.0 | 0.00 | 0.00 | 0.00 | 55 | 1023.5 |
| 20260902134546 | 77 | 0 | 1.0 | 6.0 | 0.00 | 0.00 | 0.00 | 55 | 1023.5 |
| 20260902133041 | 77 | 0 | 0.0 | 10.0 | 0.00 | 0.00 | 0.00 | 55 | 1023.5 |
| 20260902131542 | 76 | 288 | 1.0 | 8.0 | 0.00 | 0.00 | 0.00 | 58 | 1023.6 |
| 20260902130046 | 76 | 0 | 0.0 | 9.0 | 0.00 | 0.00 | 0.00 | 57 | 1023.8 |
| 20260902124543 | 75 | 0 | 1.0 | 8.0 | 0.00 | 0.00 | 0.00 | 58 | 1023.7 |
| 20260902123049 | 76 | 0 | 1.0 | 7.0 | 0.00 | 0.00 | 0.00 | 58 | 1023.8 |
| 20260902121553 | 75 | 0 | 0.0 | 6.0 | 0.00 | 0.00 | 0.00 | 60 | 1023.9 |
| 20260902120044 | 74 | 0 | 1.0 | 8.0 | 0.00 | 0.00 | 0.00 | 62 | 1023.9 |
| 20260902114544 | 74 | 282 | 1.0 | 7.0 | 0.00 | 0.00 | 0.00 | 63 | 1024.0 |
| 20260902113044 | 73 | 0 | 2.0 | 7.0 | 0.00 | 0.00 | 0.00 | 63 | 1024.1 |
| 20260902111551 | 73 | 0 | 1.0 | 9.0 | 0.00 | 0.00 | 0.00 | 64 | 1024.2 |
| 20260902110048 | 72 | 253 | 0.0 | 7.0 | 0.00 | 0.00 | 0.00 | 66 | 1024.2 |
| 20260902104552 | 72 | 272 | 2.0 | 8.0 | 0.00 | 0.00 | 0.00 | 64 | 1024.2 |